{"data":{"norad_id":60106,"epoch":"2026-09-21T13:10:12.470880Z","epoch_age_seconds":86689,"freshness":"FRESH","line1":"1 60106U 24117R   26264.54875545  .00002554  00000+0  86710-4 0  9992","line2":"2 60106  53.1548 204.5219 0002040  87.1955 272.9281 15.34401466126919","mean_motion":15.34401466,"eccentricity":0.000204,"inclination_deg":53.1548,"raan_deg":204.5219,"arg_perigee_deg":87.1955,"mean_anomaly_deg":272.9281,"bstar":8.671e-5,"rev_number":12691,"period_min":93.847668417178,"perigee_km":461.30335242951,"apogee_km":464.09441346975,"semimajor_km":6840.8358829496,"source":"CELESTRAK","updated_at":"2026-09-22T09:00:49.152717Z"}}